This demonstration page uses our WeatherBlox Daily Observations layout. Learn more.

Left ArrowRight Arrow

34.74481, -87.66753

Hourly Observations for April 21, 2015

Temp ( °F °C ) Dew Point ( °F °C ) Humidity (%) Winds ( mph kmh ) Pressure ( in mb ) Visibility ( mi km ) Precip ( " mm )
12:53 am 00:53 Clear 49 9.4 43 6.1 80 80 Calm 29.96 1014 10 16 0.00 0.00
1:53 am 01:53 Clear 48 8.9 43 6.1 83 83 Calm 29.95 1014 10 16 0.00 0.00
2:53 am 02:53 Clear 46 7.8 41 5 83 83 Calm 29.95 1014 10 16 0.00 0.00
3:53 am 03:53 Clear 48 8.9 43 6.1 83 83 Calm 29.96 1015 10 16 0.00 0.00
4:53 am 04:53 Clear 47 8.3 43 6.1 86 86 WNW 3 6 29.98 1015 10 16 0.00 0.00
5:53 am 05:53 Clear 46 7.8 42 5.6 86 86 WNW 3 6 29.99 1016 10 16 0.00 0.00
6:53 am 06:53 Sunny 46 7.8 42 5.6 86 86 WNW 6 9 30.01 1016 10 16 0.00 0.00
7:53 am 07:53 Sunny 52 11.1 46 7.8 80 80 WNW 5 7 30.03 1017 10 16 0.00 0.00
8:53 am 08:53 Sunny 57 13.9 44 6.7 62 62 WNW 5 7 30.04 1017 10 16 0.00 0.00
9:53 am 09:53 Sunny 61 16.1 37 2.8 41 41 WNW 10 17 30.06 1018 10 16 0.00 0.00
10:53 am 10:53 Sunny 63 17.2 38 3.3 40 40 W 9 15 30.06 1018 10 16 0.00 0.00
11:53 am 11:53 Sunny 65 18.3 36 2.2 34 34 W 7 11 30.04 1017 10 16 0.00 0.00
12:53 pm 12:53 Sunny 67 19.4 35 1.7 31 31 VRB 6 9 30.01 1016 10 16 0.00 0.00
1:53 pm 13:53 Sunny 68 20 34 1.1 28 28 VRB 5 7 30.00 1016 10 16 0.00 0.00
2:53 pm 14:53 Sunny 69 20.6 37 2.8 31 31 SW 9 15 29.97 1015 10 16 0.00 0.00
3:53 pm 15:53 Sunny 70 21.1 42 5.6 37 37 WNW 12 19 29.96 1015 10 16 0.00 0.00
4:53 pm 16:53 Sunny 69 20.6 38 3.3 32 32 W 3 6 29.94 1014 10 16 0.00 0.00
5:53 pm 17:53 Sunny 66 18.9 42 5.6 42 42 WSW 9 15 29.93 1014 10 16 0.00 0.00
6:53 pm 18:53 Sunny 64 17.8 40 4.4 41 41 SW 6 9 29.93 1013 10 16 0.00 0.00
7:53 pm 19:53 Clear 62 16.7 41 5 46 46 SW 6 9 29.93 1014 10 16 0.00 0.00
8:53 pm 20:53 Clear 60 15.6 40 4.4 47 47 SSW 8 13 29.93 1014 10 16 0.00 0.00
9:53 pm 21:53 Clear 57 13.9 41 5 55 55 SSW 5 7 29.94 1014 10 16 0.00 0.00
10:53 pm 22:53 Clear 55 12.8 42 5.6 62 62 SSW 3 6 29.94 1014 10 16 0.00 0.00
11:53 pm 23:53 Clear 54 12.2 40 4.4 59 59 Calm 29.95 1014 10 16 0.00 0.00

Powered by AerisWeather